Погода в Дуки-ди-Кашиас

Бразилия     22˚47′14″S   43˚18′46″W
темп.,
°C
ветер,
м/с
пор.,
м/с
влажн.,
%
обл.,
%
осадки,
мм/ч
давл.,
гПа
погр.,
м
17 января, вс
вс1700:00+27˚ссв126459 0.0 1012198
03:00+26˚с126568 0.0 1011196
06:00+26˚ссз1365100 0.0 1013270
09:00+31˚ссз244796 0.0 1013977
12:00+36˚ссз2332100 0.0 10121687
15:00+38˚с123197 0.0 10102091
18:00+32˚с3344100 0.0 1010749
21:00+29˚ссз235066 0.0 1012234
18 января, пн
пн1800:00+27˚ссв11560 0.0 1013183
03:00+25˚с12621 0.0 1012176
06:00+25˚с12650 0.0 1012189
09:00+32˚ссз24410 0.0 1013976
12:00+37˚ссз25230 0.0 10121804
15:00+38˚ссз23220 0.0 10102005
18:00+34˚с12340 0.0 10111329
21:00+29˚с12490 0.0 1012230
19 января, вт
вт1900:00+27˚сз23550 0.0 1013205
03:00+26˚ссз12620 0.0 1012169
06:00+26˚сз12670 0.0 1013161
09:00+32˚ссз12440 0.0 1014772
12:00+38˚всв02281 0.0 10142042
15:00+36˚юв223244 0.0 10122054
18:00+31˚ююв354997 0.0 1012615
21:00+27˚зсз246599 0.3 1015276
20 января, ср
ср2000:00+27˚зсз3569100 0.1 1015298
03:00+26˚зсз1268100 0.6 1014231
06:00+26˚св1170100 0.0 1015250
09:00+31˚св1252100 0.1 1016776
12:00+36˚юв123888 0.0 10141762
15:00+32˚вюв444794 0.2 1012785
18:00+31˚вюв3554100 0.1 1013841
21:00+27˚в246774 0.3 1016395
21 января, чт
чт2100:00+25˚всв1275100 0.0 1016340
03:00+25˚всв117791 0.0 1015308
06:00+24˚св1278100 0.1 1016229
09:00+30˚всв1251100 0.1 1018807
12:00+34˚юв223193 0.0 10161627
15:00+34˚юв433268 0.0 10141498
18:00+30˚в465599 0.0 1015755
21:00+26˚в236953 0.0 1017345